(219430) = 2000 TX44

Discovered at Socorro on 2000-10-01 by LINEAR.

Orbit

Orbit type: Main Belt

Note: WebGL enabled browser required.

epoch2023-09-13.0
epoch JD2460200.5
perihelion date2023-08-19.19351
perihelion JD2460175.69351
argument of perihelion (°)300.35437
ascending node (°)98.02233
inclination (°)7.85612
eccentricity0.2912489
perihelion distance (AU)1.9398797
Tisserand w.r.t. Jupiter3.3
ΔV w.r.t. Earth (km/sec)9.1
semimajor axis (AU)2.7370395
mean anomaly (°)5.39943
mean daily motion (°/day)0.21766180
aphelion distance (AU)3.534
period (years)4.53
P-vector [x]0.77592629
P-vector [y]0.61547970
P-vector [z]0.13828641
Q-vector [x]-0.61613250
Q-vector [y]0.69238772
Q-vector [z]0.37547302
absolute magnitude16.1
phase slope0.15
uncertainty0
referenceMPEC 2024-B43
observations used762
oppositions14
arc length (days)8566
first opposition used2000
last opposition used2024
residual rms (arc-secs)0.69
perturbers coarse indicatorM-v
perturbers precise indicator003Ek
first observation date used2000-08-05.0
last observation date used2024-01-18.0
computer nameMPCLINUX
Minimum Orbit Intersection Distances (in AU)
for orbit epoch: 2460200.5, reference: E2024-B43
Mercury1.61724
Venus1.22011
Earth0.96095
Mars0.4985
Jupiter1.92871
Saturn6.26843
Uranus15.1357
Neptune27.1817

Observations

776 total observations over interval: 2000 08 05.47910 – 2024 01 18.399094
These data are available for download (format description).

Date (UT) J2000 RA J2000 Dec Magn Location Ref
2000 08 05.47910 00 43 31.75 -07 26 23.5 20.3   608 – Haleakala-AMOS MPS 30823
2000 08 05.48972 00 43 32.07 -07 26 25.5 20.1   608 – Haleakala-AMOS MPS 30823
2000 08 05.50044 00 43 32.40 -07 26 27.5 20.2   608 – Haleakala-AMOS MPS 30823
2000 08 28.31673 00 49 10.83 -09 24 31.8 18.4   704 – Lincoln Laboratory ETS, New Mexico MPS 30188
2000 08 28.34381 00 49 10.52 -09 24 45.0 18.8   704 – Lincoln Laboratory ETS, New Mexico MPS 30188
2000 08 28.35741 00 49 10.51 -09 24 48.9 18.5   704 – Lincoln Laboratory ETS, New Mexico MPS 30188
2000 08 28.37092 00 49 10.41 -09 24 56.4 18.7   704 – Lincoln Laboratory ETS, New Mexico MPS 30188
2000 09 23.33300 00 37 51.01 -12 34 13.3 18.0 R 699 – Lowell Observatory-LONEOS MPS 30188
2000 09 23.34843 00 37 50.35 -12 34 18.9   699 – Lowell Observatory-LONEOS MPS 30188
2000 09 23.36388 00 37 49.61 -12 34 24.6   699 – Lowell Observatory-LONEOS MPS 30188
2000 09 23.37931 00 37 48.90 -12 34 30.2   699 – Lowell Observatory-LONEOS MPS 30188
2000 10 01.26252 00 31 56.32 -13 19 21.9 16.7   704 – Lincoln Laboratory ETS, New Mexico MPS 21477
2000 10 01.27788 00 31 55.52 -13 19 26.2 16.4   704 – Lincoln Laboratory ETS, New Mexico MPS 21477
2000 10 01.29295 00 31 54.82 -13 19 31.2 16.1   704 – Lincoln Laboratory ETS, New Mexico MPS 21477
2000 10 01.30758 00 31 54.08 -13 19 35.0 16.4   704 – Lincoln Laboratory ETS, New Mexico MPS 21477
2000 10 04.53339 00 29 25.66 -13 33 38.3 19.0   608 – Haleakala-AMOS MPS 21477
2000 10 04.54461 00 29 25.14 -13 33 41.4 19.3   608 – Haleakala-AMOS MPS 21477
2000 10 04.55601 00 29 24.58 -13 33 43.5 20.0   608 – Haleakala-AMOS MPS 21477
2000 10 27.21904 00 15 42.03 -13 42 13.8 18.2   704 – Lincoln Laboratory ETS, New Mexico MPS 30188
2000 10 27.23312 00 15 41.61 -13 42 10.7 18.6   704 – Lincoln Laboratory ETS, New Mexico MPS 30188
2000 10 27.26226 00 15 40.96 -13 42 05.7 18.6   704 – Lincoln Laboratory ETS, New Mexico MPS 30188
2000 10 27.27691 00 15 40.64 -13 42 01.9 18.8   704 – Lincoln Laboratory ETS, New Mexico MPS 30188
2000 11 18.15120 00 15 27.74 -11 21 30.1 18.4   704 – Lincoln Laboratory ETS, New Mexico MPS 30188
2000 11 18.16625 00 15 28.05 -11 21 22.0 19.1   704 – Lincoln Laboratory ETS, New Mexico MPS 30188
2000 11 18.18135 00 15 28.28 -11 21 14.4 19.4   704 – Lincoln Laboratory ETS, New Mexico MPS 30188
2000 11 18.19838 00 15 28.53 -11 21 04.4 19.8   704 – Lincoln Laboratory ETS, New Mexico MPS 30188
2000 11 18.21372 00 15 28.85 -11 20 55.4 19.4   704 – Lincoln Laboratory ETS, New Mexico MPS 30188
2003 04 30.35284 14 57 46.83 -07 25 49.5 21.8 V 691 – Steward Observatory, Kitt Peak-Spacewatch MPS 143411
2003 04 30.38064 14 57 45.44 -07 25 44.5 21.5 V 691 – Steward Observatory, Kitt Peak-Spacewatch MPS 143411
2003 04 30.41290 14 57 43.79 -07 25 38.1 21.0 V 691 – Steward Observatory, Kitt Peak-Spacewatch MPS 143412
2005 10 06.45654 07 08 42.03 +19 15 37.5 20.3 V G96 – Mt. Lemmon Survey MPS 143412
2005 10 06.45895 07 08 42.28 +19 15 38.3 19.8 V G96 – Mt. Lemmon Survey MPS 143412
2005 10 07.45434 07 10 10.20 +19 15 12.2 20.4 V G96 – Mt. Lemmon Survey MPS 143412
2005 10 07.45542 07 10 10.34 +19 15 12.3 20.2 V G96 – Mt. Lemmon Survey MPS 143412
2005 10 07.45651 07 10 10.41 +19 15 12.2 20.2 V G96 – Mt. Lemmon Survey MPS 143412
2005 10 07.45759 07 10 10.52 +19 15 12.4 20.4 V G96 – Mt. Lemmon Survey MPS 143412
2005 11 28.42974 07 50 40.74 +20 23 02.6 20.1 V G96 – Mt. Lemmon Survey MPS 151825
2005 11 28.43784 07 50 40.66 +20 23 04.9 19.9 V G96 – Mt. Lemmon Survey MPS 151825
2005 11 28.44583 07 50 40.63 +20 23 06.9 20.4 V G96 – Mt. Lemmon Survey MPS 151825
2005 11 28.45374 07 50 40.59 +20 23 09.4 20.5 V G96 – Mt. Lemmon Survey MPS 151825
2005 11 29.38818 07 50 36.21 +20 27 11.4 19.0   704 – Lincoln Laboratory ETS, New Mexico MPS 151825
2005 11 29.40092 07 50 36.22 +20 27 15.1 19.1   704 – Lincoln Laboratory ETS, New Mexico MPS 151825
2005 11 29.42824 07 50 36.05 +20 27 23.9 19.6   704 – Lincoln Laboratory ETS, New Mexico MPS 151825
2005 11 29.44151 07 50 35.84 +20 27 27.0 19.2   704 – Lincoln Laboratory ETS, New Mexico MPS 151825
2005 12 02.38363 07 50 08.88 +20 40 59.8 19.1 V G96 – Mt. Lemmon Survey MPS 153403
2005 12 02.39097 07 50 08.77 +20 41 02.0 19.1 V G96 – Mt. Lemmon Survey MPS 153403
2005 12 02.39826 07 50 08.66 +20 41 04.1 19.0 V G96 – Mt. Lemmon Survey MPS 153403
2005 12 02.40558 07 50 08.59 +20 41 07.4 18.4 V G96 – Mt. Lemmon Survey MPS 153403
2005 12 04.38533 07 49 39.55 +20 50 53.4 19.1   704 – Lincoln Laboratory ETS, New Mexico MPS 153403
2005 12 04.39867 07 49 39.24 +20 50 58.5 19.6   704 – Lincoln Laboratory ETS, New Mexico MPS 153403
2005 12 04.41182 07 49 39.00 +20 51 01.7 20.4   704 – Lincoln Laboratory ETS, New Mexico MPS 153403
2005 12 04.42524 07 49 38.71 +20 51 06.5 19.8   704 – Lincoln Laboratory ETS, New Mexico MPS 153403
2005 12 04.43799 07 49 38.47 +20 51 10.4 19.6   704 – Lincoln Laboratory ETS, New Mexico MPS 153403
2005 12 10.33095 07 47 21.67 +21 23 14.4 19.3   704 – Lincoln Laboratory ETS, New Mexico MPS 155174
2005 12 10.34387 07 47 21.25 +21 23 19.3 19.5   704 – Lincoln Laboratory ETS, New Mexico MPS 155174
2005 12 10.35685 07 47 20.95 +21 23 24.1 19.8   704 – Lincoln Laboratory ETS, New Mexico MPS 155174
2005 12 10.38276 07 47 20.07 +21 23 32.3 19.4   704 – Lincoln Laboratory ETS, New Mexico MPS 155174
2005 12 24.34110 07 37 29.38 +22 52 13.0   691 – Steward Observatory, Kitt Peak-Spacewatch MPS 156383
2005 12 24.35845 07 37 28.40 +22 52 20.0   691 – Steward Observatory, Kitt Peak-Spacewatch MPS 156383
2005 12 24.37870 07 37 27.26 +22 52 28.2   691 – Steward Observatory, Kitt Peak-Spacewatch MPS 156383
2005 12 30.29513 07 31 50.66 +23 32 20.2 19.2 V 691 – Steward Observatory, Kitt Peak-Spacewatch MPS 156383
2005 12 30.31252 07 31 49.57 +23 32 27.3 19.1 V 691 – Steward Observatory, Kitt Peak-Spacewatch MPS 156383
2005 12 30.32991 07 31 48.48 +23 32 34.1 20.1 V 691 – Steward Observatory, Kitt Peak-Spacewatch MPS 156383
2005 12 31.33540 07 30 47.90 +23 39 18.4 18.9   704 – Lincoln Laboratory ETS, New Mexico MPS 157566
2005 12 31.34964 07 30 47.03 +23 39 24.1 19.0   704 – Lincoln Laboratory ETS, New Mexico MPS 157566
2005 12 31.36295 07 30 46.16 +23 39 28.6 18.9   704 – Lincoln Laboratory ETS, New Mexico MPS 157566
2005 12 31.37621 07 30 45.30 +23 39 34.5 19.4   704 – Lincoln Laboratory ETS, New Mexico MPS 157566
2005 12 31.38961 07 30 44.55 +23 39 39.7 19.1   704 – Lincoln Laboratory ETS, New Mexico MPS 157566
2006 01 05.27981 07 25 42.19 +24 11 49.6 18.6   704 – Lincoln Laboratory ETS, New Mexico MPS 157566
2006 01 05.29267 07 25 41.37 +24 11 54.8 18.8   704 – Lincoln Laboratory ETS, New Mexico MPS 157566
2006 01 05.30555 07 25 40.57 +24 12 00.0 19.0   704 – Lincoln Laboratory ETS, New Mexico MPS 157566
2006 01 05.33166 07 25 38.82 +24 12 09.6 18.8   704 – Lincoln Laboratory ETS, New Mexico MPS 157566
2006 01 07.26267 07 23 37.65 +24 24 27.3 19.1 V 691 – Steward Observatory, Kitt Peak-Spacewatch MPS 158772
2006 01 07.26654 07 23 37.39 +24 24 28.1 18.7 V G96 – Mt. Lemmon Survey MPS 158772
2006 01 07.27277 07 23 36.96 +24 24 30.6 18.8 V G96 – Mt. Lemmon Survey MPS 158772
2006 01 07.27902 07 23 36.56 +24 24 32.9 18.8 V G96 – Mt. Lemmon Survey MPS 158772
2006 01 07.28003 07 23 36.51 +24 24 33.9 19.1 V 691 – Steward Observatory, Kitt Peak-Spacewatch MPS 158772
2006 01 07.28524 07 23 36.16 +24 24 35.3 18.8 V G96 – Mt. Lemmon Survey MPS 158772
2006 01 07.29740 07 23 35.40 +24 24 40.3 19.1 V 691 – Steward Observatory, Kitt Peak-Spacewatch MPS 158772
2006 01 11.26714 07 19 26.77 +24 48 59.4 18.4   704 – Lincoln Laboratory ETS, New Mexico MPS 158772
2006 01 11.27996 07 19 25.98 +24 49 04.2 19.0   704 – Lincoln Laboratory ETS, New Mexico MPS 158772
2006 01 11.29277 07 19 25.18 +24 49 09.5 18.6   704 – Lincoln Laboratory ETS, New Mexico MPS 158772
2006 01 11.30574 07 19 24.31 +24 49 14.4 18.5   704 – Lincoln Laboratory ETS, New Mexico MPS 158772
2008 05 28.36874 16 36 52.09 -16 29 29.2 20.6 V G96 – Mt. Lemmon Survey MPS 250378
2008 05 28.37608 16 36 51.66 -16 29 28.9 20.6 V G96 – Mt. Lemmon Survey MPS 250378
2008 05 28.38338 16 36 51.30 -16 29 28.7 21.5 V G96 – Mt. Lemmon Survey MPS 250378
2008 05 28.39064 16 36 50.83 -16 29 28.0 20.5 V G96 – Mt. Lemmon Survey MPS 250378
2009 08 20.42164 00 05 56.61 -13 03 54.0 18.4 V 703 – Catalina Sky Survey MPS 292562
2009 08 20.42885 00 05 56.54 -13 03 56.9 18.6 V 703 – Catalina Sky Survey MPS 292562
2009 08 20.43598 00 05 56.47 -13 04 00.8 18.9 V 703 – Catalina Sky Survey MPS 292562
